Cosmos 1437 - Orbit

View from above orbital plane
View from above orbital plane
View from above satellite
View from above satellite

Ground track
Ground track

The orbit data is extracted from the following two-line orbital elements,

1 13770U 83003A   13144.58261546  .00007651  00000-0  31001-3 0  2879
2 13770 081.1667 135.4903 0013538 007.5522 131.6110 15.24438374658266
Epoch (UTC): 24 May 2013 13:58:57
Eccentricity: 0.0013538
inclination: 81.1667°
perigee height: 483 km
apogee height: 502 km
right ascension of ascending node: 135.4903°
argument of perigee: 7.5522°
revolutions per day: 15.24438374
mean anomaly at epoch: 131.6110°
orbit number at epoch: 65826

The dashed part of the orbit path shows where the satellite is in the earth's shadow,  

Developed and maintained by Chris Peat, Heavens-Above GmbH. Please read the updated FAQ before sending e-mail. Imprint. DLR